Weather History for KWST - March, 2013

Change the Weather History Date:

Friday, March 8, 2013

  Actual Average (KGON) Record (KGON)
Temperature  
Mean Temperature 36 °F -  
Max Temperature 41 °F 44 °F 69 °F (1987)
Min Temperature 30 °F 24 °F 7 °F (1986)
Degree Days  
Heating Degree Days 30    
Moisture  
Dew Point 27 °F    
Average Humidity 80    
Maximum Humidity 93    
Minimum Humidity 41    
Precipitation  
Precipitation 0.00 in - - ()
Sea Level Pressure  
Sea Level Pressure 29.94 in    
Wind  
Wind Speed 14 mph (North)    
Max Wind Speed 21 mph    
Max Gust Speed 36 mph    
Visibility 4 miles    
Events Snow    
Averages and records for this station are not official NWS values.
T = Trace of Precipitation, MM = Missing Value Source: NWS Daily Summary

Daily Weather History Graph

Daily Weather History Graph

Search for Another Location

Airport or City:

Trip Planner

Search our weather history database for the weather conditions in past years. The results will help you decide how hot, cold, wet, or windy it might be!

Date:

Astronomy

Mar. 08, 2013 Rise Set
Actual Time 6:10 AM EST 5:46 PM EST
Civil Twilight 5:42 AM EST 6:13 PM EST
Nautical Twilight 5:10 AM EST 6:45 PM EST
Astronomical Twilight 4:38 AM EST 7:18 PM EST
Moon 3:54 AM EST (3/8) 2:36 PM EST (3/8)
Length of Visible Light 12h 31m
Length of Day
11h 36m
Waning Crescent, 12% of the Moon is Illuminated
Mar 8
Waning Crescent
Mar 11
New
Mar 19
First Quarter
Mar 27
Full
Apr 3
Last Quarter

Hourly Weather History & Observations

Time (EST) Temp. Windchill Dew Point Humidity Pressure Visibility Wind Dir Wind Speed Gust Speed Precip Events Conditions
12:13 AM 33.8 °F 24.3 °F 26.6 °F 75% 29.92 in 6.0 mi North 13.8 mph 21.9 mph 0.00 in Snow Light Snow
12:27 AM 33.8 °F 24.8 °F 26.6 °F 75% 29.92 in 4.0 mi North 12.7 mph 25.3 mph 0.00 in Snow Light Snow
12:53 AM 33.1 °F 22.2 °F 27.0 °F 78% 29.92 in 10.0 mi North 17.3 mph 25.3 mph 0.00 in   Overcast
1:16 AM 33.8 °F 23.5 °F 26.6 °F 75% 29.91 in 10.0 mi North 16.1 mph 28.8 mph N/A   Overcast
1:53 AM 33.1 °F 23.4 °F 27.0 °F 78% 29.91 in 10.0 mi North 13.8 mph 24.2 mph N/A   Overcast
2:28 AM 33.8 °F 23.9 °F 26.6 °F 75% 29.90 in 9.0 mi North 15.0 mph 24.2 mph 0.00 in Snow Light Snow
2:53 AM 33.1 °F 24.4 °F 26.1 °F 75% 29.90 in 10.0 mi North 11.5 mph 19.6 mph 0.00 in   Overcast
3:53 AM 32.0 °F 22.1 °F 28.0 °F 85% 29.91 in 2.0 mi North 13.8 mph 20.7 mph 0.00 in Snow Light Snow
4:02 AM 30.2 °F 21.3 °F 28.4 °F 93% 29.90 in 1.8 mi North 10.4 mph 19.6 mph 0.00 in Snow Light Snow
4:21 AM 30.2 °F 19.3 °F 28.4 °F 93% 29.90 in 1.0 mi NNW 15.0 mph - 0.00 in Snow Light Snow
4:53 AM 30.9 °F 21.7 °F 28.9 °F 92% 29.91 in 1.2 mi North 11.5 mph - 0.00 in Snow Light Snow
5:10 AM 30.2 °F 20.8 °F 28.4 °F 93% 29.90 in 1.0 mi North 11.5 mph - 0.00 in Snow Light Snow
5:50 AM 30.2 °F 20.8 °F 28.4 °F 93% 29.90 in 2.0 mi North 11.5 mph - 0.00 in Snow Light Snow
5:53 AM 30.9 °F 21.7 °F 28.0 °F 89% 29.90 in 1.8 mi North 11.5 mph - 0.00 in Snow Light Snow
6:11 AM 30.2 °F 19.8 °F 28.4 °F 93% 29.90 in 2.5 mi North 13.8 mph 21.9 mph 0.00 in Snow Light Snow
6:27 AM 30.2 °F 19.3 °F 28.4 °F 93% 29.90 in 1.5 mi North 15.0 mph 21.9 mph 0.00 in Snow Light Snow
6:53 AM 30.9 °F 20.7 °F 28.0 °F 89% 29.91 in 1.2 mi North 13.8 mph 24.2 mph 0.00 in Snow Light Snow
7:15 AM 30.2 °F 19.3 °F 28.4 °F 93% 29.90 in 0.8 mi North 15.0 mph 25.3 mph 0.00 in Snow Light Snow
7:45 AM 30.2 °F 20.2 °F 28.4 °F 93% 29.91 in 1.5 mi North 12.7 mph - 0.00 in Snow Light Snow
7:53 AM 32.0 °F 23.0 °F 28.0 °F 85% 29.91 in 2.5 mi North 11.5 mph 19.6 mph 0.00 in Snow Light Snow
8:02 AM 32.0 °F 22.5 °F 28.4 °F 87% 29.91 in 3.0 mi North 12.7 mph 21.9 mph 0.00 in Snow Light Snow
8:08 AM 32.0 °F 22.5 °F 28.4 °F 87% 29.91 in 2.5 mi North 12.7 mph 21.9 mph 0.00 in Snow Light Snow
8:11 AM 32.0 °F 23.0 °F 28.4 °F 87% 29.91 in 3.0 mi North 11.5 mph 20.7 mph 0.00 in Snow Light Snow
8:34 AM 32.0 °F 22.1 °F 26.6 °F 80% 29.91 in 3.0 mi North 13.8 mph 19.6 mph 0.00 in Snow Light Snow
8:41 AM 32.0 °F 21.6 °F 28.4 °F 87% 29.92 in 1.8 mi North 15.0 mph 24.2 mph 0.00 in Snow Light Snow
8:48 AM 32.0 °F 23.0 °F 28.4 °F 87% 29.91 in 1.2 mi North 11.5 mph 21.9 mph 0.00 in Snow Light Snow
8:53 AM 32.0 °F 22.1 °F 28.0 °F 85% 29.91 in 1.2 mi North 13.8 mph 25.3 mph 0.00 in Snow Light Snow
9:05 AM 32.0 °F 21.6 °F 28.4 °F 87% 29.91 in 3.0 mi North 15.0 mph 24.2 mph 0.00 in Snow Light Snow
9:19 AM 32.0 °F 23.0 °F 28.4 °F 87% 29.91 in 2.0 mi North 11.5 mph 24.2 mph 0.00 in Snow Light Snow
9:26 AM 32.0 °F 22.5 °F 28.4 °F 87% 29.92 in 1.2 mi North 12.7 mph 27.6 mph 0.00 in Snow Light Snow
9:41 AM 33.8 °F 22.5 °F 26.6 °F 75% 29.92 in 3.0 mi North 19.6 mph 29.9 mph 0.00 in Snow Light Snow
9:53 AM 33.1 °F 23.0 °F 27.0 °F 78% 29.92 in 4.0 mi North 15.0 mph 29.9 mph 0.00 in Snow Light Snow
10:02 AM 32.0 °F 20.5 °F 26.6 °F 80% 29.92 in 2.0 mi North 18.4 mph 27.6 mph 0.00 in Snow Light Snow
10:08 AM 32.0 °F 22.1 °F 28.4 °F 87% 29.92 in 1.2 mi North 13.8 mph 26.5 mph 0.00 in Snow Light Snow
10:15 AM 32.0 °F 22.5 °F 28.4 °F 87% 29.92 in 1.5 mi North 12.7 mph 19.6 mph 0.00 in Snow Light Snow
10:43 AM 32.0 °F 21.6 °F 26.6 °F 80% 29.93 in 2.5 mi North 15.0 mph 24.2 mph 0.00 in Snow Light Snow
10:53 AM 32.0 °F 22.1 °F 27.0 °F 82% 29.93 in 1.8 mi North 13.8 mph 27.6 mph 0.00 in Snow Light Snow
11:18 AM 32.0 °F 20.1 °F 26.6 °F 80% 29.93 in 3.0 mi North 19.6 mph 28.8 mph 0.00 in Snow Light Snow
11:25 AM 33.8 °F 23.5 °F 26.6 °F 75% 29.93 in 8.0 mi North 16.1 mph 28.8 mph 0.00 in   Overcast
11:53 AM 33.1 °F 22.6 °F 27.0 °F 78% 29.94 in 3.0 mi North 16.1 mph 26.5 mph 0.00 in Snow Light Snow
11:59 AM 33.8 °F 23.9 °F 26.6 °F 75% 29.94 in 2.5 mi North 15.0 mph 27.6 mph 0.00 in Snow Light Snow
12:17 PM 33.8 °F 23.2 °F 26.6 °F 75% 29.94 in 4.0 mi North 17.3 mph 26.5 mph 0.00 in Snow Light Snow
12:37 PM 33.8 °F 23.5 °F 28.4 °F 81% 29.94 in 1.8 mi North 16.1 mph 32.2 mph 0.00 in Snow Light Snow
12:53 PM 32.0 °F 22.5 °F 28.9 °F 88% 29.94 in 1.0 mi North 12.7 mph 26.5 mph 0.00 in Snow Light Snow
1:01 PM 33.8 °F 23.2 °F 28.4 °F 81% 29.94 in 3.0 mi North 17.3 mph 26.5 mph 0.00 in Snow Light Snow
1:53 PM 34.0 °F 22.7 °F 27.0 °F 75% 29.95 in 10.0 mi NNE 19.6 mph 29.9 mph 0.00 in   Overcast
2:53 PM 35.1 °F 24.5 °F 28.0 °F 76% 29.96 in 10.0 mi North 18.4 mph 32.2 mph N/A   Overcast
3:53 PM 35.1 °F 24.8 °F 30.0 °F 82% 29.98 in 9.0 mi North 17.3 mph 35.7 mph N/A   Overcast
4:53 PM 36.0 °F 25.0 °F 30.0 °F 79% 30.00 in 10.0 mi NNE 20.7 mph 35.7 mph N/A   Overcast
5:53 PM 36.0 °F 26.0 °F 30.9 °F 82% 30.03 in 10.0 mi North 17.3 mph 29.9 mph N/A   Overcast
6:53 PM 37.0 °F 28.1 °F 30.0 °F 76% 30.05 in 10.0 mi North 15.0 mph 31.1 mph N/A   Overcast
7:53 PM 39.0 °F 31.8 °F 27.0 °F 62% 30.06 in 10.0 mi North 11.5 mph 19.6 mph N/A   Scattered Clouds
8:53 PM 39.9 °F 31.8 °F 24.1 °F 53% 30.07 in 10.0 mi North 15.0 mph 23.0 mph N/A   Mostly Cloudy
9:53 PM 41.0 °F 32.5 °F 21.9 °F 47% 30.09 in 10.0 mi North 17.3 mph 27.6 mph N/A   Clear
10:53 PM 41.0 °F 32.8 °F 19.9 °F 43% 30.08 in 10.0 mi North 16.1 mph 27.6 mph N/A   Clear
11:53 PM 39.9 °F 32.5 °F 18.0 °F 41% 30.09 in 10.0 mi North 12.7 mph 26.5 mph N/A   Clear